owner,sensor,date,latitude,longitude,mass_concentration_of_chlorophyll_in_sea_water,qcFlag 
LUMCON,ioos:station:LUMCON:wisl1:1,2019-08-01T00:00:00Z,29.1144,-90.1840,23.05,11111222 
LUMCON,ioos:station:LUMCON:wisl1:1,2019-08-01T00:15:00Z,29.1144,-90.1840,24.01,11111222 
LUMCON,ioos:station:LUMCON:wisl1:1,2019-08-01T00:30:00Z,29.1144,-90.1840,24.85,11111222 
LUMCON,ioos:station:LUMCON:wisl1:1,2019-08-01T00:45:00Z,29.1144,-90.1840,24.61,11111222 
LUMCON,ioos:station:LUMCON:wisl1:1,2019-08-01T01:00:00Z,29.1144,-90.1840,24.82,11111222 
LUMCON,ioos:station:LUMCON:wisl1:1,2019-08-01T01:15:00Z,29.1144,-90.1840,25.14,11111222 
LUMCON,ioos:station:LUMCON:wisl1:1,2019-08-01T01:30:00Z,29.1144,-90.1840,25.61,11111222 
LUMCON,ioos:station:LUMCON:wisl1:1,2019-08-01T01:45:00Z,29.1144,-90.1840,25.39,11111222 
LUMCON,ioos:station:LUMCON:wisl1:1,2019-08-01T02:00:00Z,29.1144,-90.1840,25.99,11111222 
LUMCON,ioos:station:LUMCON:wisl1:1,2019-08-01T02:15:00Z,29.1144,-90.1840,25.31,11111222 
LUMCON,ioos:station:LUMCON:wisl1:1,2019-08-01T02:30:00Z,29.1144,-90.1840,25.24,11111222 
LUMCON,ioos:station:LUMCON:wisl1:1,2019-08-01T02:45:00Z,29.1144,-90.1840,25.46,11111222 
LUMCON,ioos:station:LUMCON:wisl1:1,2019-08-01T03:00:00Z,29.1144,-90.1840,26.29,11111222 
LUMCON,ioos:station:LUMCON:wisl1:1,2019-08-01T03:15:00Z,29.1144,-90.1840,26.23,11111222 
LUMCON,ioos:station:LUMCON:wisl1:1,2019-08-01T03:30:00Z,29.1144,-90.1840,25.83,11111222 
LUMCON,ioos:station:LUMCON:wisl1:1,2019-08-01T03:45:00Z,29.1144,-90.1840,25.67,11111222 
LUMCON,ioos:station:LUMCON:wisl1:1,2019-08-01T04:00:00Z,29.1144,-90.1840,25.99,11111222 
LUMCON,ioos:station:LUMCON:wisl1:1,2019-08-01T04:15:00Z,29.1144,-90.1840,26.27,11111222 
LUMCON,ioos:station:LUMCON:wisl1:1,2019-08-01T04:30:00Z,29.1144,-90.1840,27.13,11111222 
LUMCON,ioos:station:LUMCON:wisl1:1,2019-08-01T04:45:00Z,29.1144,-90.1840,26.62,11111222 
LUMCON,ioos:station:LUMCON:wisl1:1,2019-08-01T05:00:00Z,29.1144,-90.1840,27.16,11111222 
LUMCON,ioos:station:LUMCON:wisl1:1,2019-08-01T05:15:00Z,29.1144,-90.1840,24.34,11111222 
LUMCON,ioos:station:LUMCON:wisl1:1,2019-08-01T05:30:00Z,29.1144,-90.1840,26.67,11111222 
LUMCON,ioos:station:LUMCON:wisl1:1,2019-08-01T05:45:00Z,29.1144,-90.1840,26.14,11111222 
LUMCON,ioos:station:LUMCON:wisl1:1,2019-08-01T06:00:00Z,29.1144,-90.1840,26.92,11111222 
LUMCON,ioos:station:LUMCON:wisl1:1,2019-08-01T06:15:00Z,29.1144,-90.1840,25.38,11111222 
LUMCON,ioos:station:LUMCON:wisl1:1,2019-08-01T06:30:00Z,29.1144,-90.1840,24.66,11111222 
LUMCON,ioos:station:LUMCON:wisl1:1,2019-08-01T06:45:00Z,29.1144,-90.1840,26.12,11111222 
LUMCON,ioos:station:LUMCON:wisl1:1,2019-08-01T07:00:00Z,29.1144,-90.1840,24.14,11111222 
LUMCON,ioos:station:LUMCON:wisl1:1,2019-08-01T07:15:00Z,29.1144,-90.1840,25.54,11111222 
LUMCON,ioos:station:LUMCON:wisl1:1,2019-08-01T07:30:00Z,29.1144,-90.1840,25.51,11111222 
LUMCON,ioos:station:LUMCON:wisl1:1,2019-08-01T07:45:00Z,29.1144,-90.1840,25.11,11111222 
LUMCON,ioos:station:LUMCON:wisl1:1,2019-08-01T08:00:00Z,29.1144,-90.1840,24.97,11111222 
LUMCON,ioos:station:LUMCON:wisl1:1,2019-08-01T08:15:00Z,29.1144,-90.1840,23.26,11111222 
LUMCON,ioos:station:LUMCON:wisl1:1,2019-08-01T08:30:00Z,29.1144,-90.1840,22.46,11111222 
LUMCON,ioos:station:LUMCON:wisl1:1,2019-08-01T08:45:00Z,29.1144,-90.1840,19.93,11111222 
LUMCON,ioos:station:LUMCON:wisl1:1,2019-08-01T09:00:00Z,29.1144,-90.1840,16.56,11111222 
LUMCON,ioos:station:LUMCON:wisl1:1,2019-08-01T09:15:00Z,29.1144,-90.1840,15.55,11111222 
LUMCON,ioos:station:LUMCON:wisl1:1,2019-08-01T09:30:00Z,29.1144,-90.1840,13.56,11111222 
LUMCON,ioos:station:LUMCON:wisl1:1,2019-08-01T09:45:00Z,29.1144,-90.1840,12.98,11111222 
LUMCON,ioos:station:LUMCON:wisl1:1,2019-08-01T10:00:00Z,29.1144,-90.1840,13.24,11111222 
LUMCON,ioos:station:LUMCON:wisl1:1,2019-08-01T10:15:00Z,29.1144,-90.1840,12.3,11111222 
LUMCON,ioos:station:LUMCON:wisl1:1,2019-08-01T10:30:00Z,29.1144,-90.1840,11.13,11111222 
LUMCON,ioos:station:LUMCON:wisl1:1,2019-08-01T10:45:00Z,29.1144,-90.1840,11.18,11111222 
LUMCON,ioos:station:LUMCON:wisl1:1,2019-08-01T11:00:00Z,29.1144,-90.1840,10.55,11111222 
LUMCON,ioos:station:LUMCON:wisl1:1,2019-08-01T11:15:00Z,29.1144,-90.1840,10.62,11111222 
LUMCON,ioos:station:LUMCON:wisl1:1,2019-08-01T11:30:00Z,29.1144,-90.1840,10.81,11111222 
LUMCON,ioos:station:LUMCON:wisl1:1,2019-08-01T11:45:00Z,29.1144,-90.1840,10.55,11111222 
LUMCON,ioos:station:LUMCON:wisl1:1,2019-08-01T12:00:00Z,29.1144,-90.1840,11.42,11111222 
LUMCON,ioos:station:LUMCON:wisl1:1,2019-08-01T12:15:00Z,29.1144,-90.1840,10.89,11111222 
LUMCON,ioos:station:LUMCON:wisl1:1,2019-08-01T12:30:00Z,29.1144,-90.1840,11.56,11111222 
LUMCON,ioos:station:LUMCON:wisl1:1,2019-08-01T12:45:00Z,29.1144,-90.1840,12.36,11111222 
LUMCON,ioos:station:LUMCON:wisl1:1,2019-08-01T13:00:00Z,29.1144,-90.1840,11.96,11111222 
LUMCON,ioos:station:LUMCON:wisl1:1,2019-08-01T13:15:00Z,29.1144,-90.1840,12.94,11111222 
LUMCON,ioos:station:LUMCON:wisl1:1,2019-08-01T13:30:00Z,29.1144,-90.1840,12.3,11111222 
LUMCON,ioos:station:LUMCON:wisl1:1,2019-08-01T13:45:00Z,29.1144,-90.1840,12.46,11111222 
LUMCON,ioos:station:LUMCON:wisl1:1,2019-08-01T14:00:00Z,29.1144,-90.1840,11.16,11111222 
LUMCON,ioos:station:LUMCON:wisl1:1,2019-08-01T14:15:00Z,29.1144,-90.1840,10.17,11111222 
LUMCON,ioos:station:LUMCON:wisl1:1,2019-08-01T14:30:00Z,29.1144,-90.1840,11.11,11111222 
LUMCON,ioos:station:LUMCON:wisl1:1,2019-08-01T14:45:00Z,29.1144,-90.1840,11.72,11111222 
LUMCON,ioos:station:LUMCON:wisl1:1,2019-08-01T15:00:00Z,29.1144,-90.1840,10.78,11111222 
LUMCON,ioos:station:LUMCON:wisl1:1,2019-08-01T15:15:00Z,29.1144,-90.1840,10.14,11111222 
LUMCON,ioos:station:LUMCON:wisl1:1,2019-08-01T15:30:00Z,29.1144,-90.1840,9.72,11111222 
LUMCON,ioos:station:LUMCON:wisl1:1,2019-08-01T15:45:00Z,29.1144,-90.1840,11.66,11111222 
LUMCON,ioos:station:LUMCON:wisl1:1,2019-08-01T16:00:00Z,29.1144,-90.1840,12.21,11111222 
LUMCON,ioos:station:LUMCON:wisl1:1,2019-08-01T16:15:00Z,29.1144,-90.1840,13.62,11111222 
LUMCON,ioos:station:LUMCON:wisl1:1,2019-08-01T16:30:00Z,29.1144,-90.1840,14.29,11111222 
LUMCON,ioos:station:LUMCON:wisl1:1,2019-08-01T16:45:00Z,29.1144,-90.1840,10.11,11111222 
LUMCON,ioos:station:LUMCON:wisl1:1,2019-08-01T17:00:00Z,29.1144,-90.1840,13.39,11111222 
LUMCON,ioos:station:LUMCON:wisl1:1,2019-08-01T17:15:00Z,29.1144,-90.1840,13.62,11111222 
LUMCON,ioos:station:LUMCON:wisl1:1,2019-08-01T17:30:00Z,29.1144,-90.1840,13.02,11111222 
LUMCON,ioos:station:LUMCON:wisl1:1,2019-08-01T17:45:00Z,29.1144,-90.1840,11.41,11111222 
LUMCON,ioos:station:LUMCON:wisl1:1,2019-08-01T18:00:00Z,29.1144,-90.1840,11.11,11111222 
LUMCON,ioos:station:LUMCON:wisl1:1,2019-08-01T18:15:00Z,29.1144,-90.1840,10.84,11111222 
LUMCON,ioos:station:LUMCON:wisl1:1,2019-08-01T18:30:00Z,29.1144,-90.1840,13.62,11111222 
LUMCON,ioos:station:LUMCON:wisl1:1,2019-08-01T18:45:00Z,29.1144,-90.1840,15.56,11111222 
LUMCON,ioos:station:LUMCON:wisl1:1,2019-08-01T19:00:00Z,29.1144,-90.1840,8.69,11111222 
LUMCON,ioos:station:LUMCON:wisl1:1,2019-08-01T19:15:00Z,29.1144,-90.1840,9.16,11111222 
LUMCON,ioos:station:LUMCON:wisl1:1,2019-08-01T19:30:00Z,29.1144,-90.1840,10.22,11111222 
LUMCON,ioos:station:LUMCON:wisl1:1,2019-08-01T19:45:00Z,29.1144,-90.1840,11.44,11111222 
LUMCON,ioos:station:LUMCON:wisl1:1,2019-08-01T20:00:00Z,29.1144,-90.1840,13.58,11111222 
LUMCON,ioos:station:LUMCON:wisl1:1,2019-08-01T20:15:00Z,29.1144,-90.1840,14.33,11111222 
LUMCON,ioos:station:LUMCON:wisl1:1,2019-08-01T20:30:00Z,29.1144,-90.1840,15.54,11111222 
LUMCON,ioos:station:LUMCON:wisl1:1,2019-08-01T20:45:00Z,29.1144,-90.1840,16.21,11111222 
LUMCON,ioos:station:LUMCON:wisl1:1,2019-08-01T21:00:00Z,29.1144,-90.1840,18.17,11111222 
LUMCON,ioos:station:LUMCON:wisl1:1,2019-08-01T21:15:00Z,29.1144,-90.1840,19.37,11111222 
LUMCON,ioos:station:LUMCON:wisl1:1,2019-08-01T21:30:00Z,29.1144,-90.1840,20.68,11111222 
LUMCON,ioos:station:LUMCON:wisl1:1,2019-08-01T21:45:00Z,29.1144,-90.1840,21.85,11111222 
LUMCON,ioos:station:LUMCON:wisl1:1,2019-08-01T22:00:00Z,29.1144,-90.1840,22.23,11111222 
LUMCON,ioos:station:LUMCON:wisl1:1,2019-08-01T22:15:00Z,29.1144,-90.1840,22.03,11111222 
LUMCON,ioos:station:LUMCON:wisl1:1,2019-08-01T22:30:00Z,29.1144,-90.1840,22.49,11111222 
LUMCON,ioos:station:LUMCON:wisl1:1,2019-08-01T22:45:00Z,29.1144,-90.1840,23.22,11111222 
LUMCON,ioos:station:LUMCON:wisl1:1,2019-08-01T23:00:00Z,29.1144,-90.1840,24.02,11111222 
LUMCON,ioos:station:LUMCON:wisl1:1,2019-08-01T23:15:00Z,29.1144,-90.1840,24.98,11111222 
LUMCON,ioos:station:LUMCON:wisl1:1,2019-08-01T23:30:00Z,29.1144,-90.1840,25.09,11111222 
LUMCON,ioos:station:LUMCON:wisl1:1,2019-08-01T23:45:00Z,29.1144,-90.1840,24.84,11111222 
LUMCON,ioos:station:LUMCON:wisl1:1,2019-08-02T00:00:00Z,29.1144,-90.1840,25.25,11111222 
LUMCON,ioos:station:LUMCON:wisl1:1,2019-08-02T00:15:00Z,29.1144,-90.1840,25.59,11111222 
LUMCON,ioos:station:LUMCON:wisl1:1,2019-08-02T00:30:00Z,29.1144,-90.1840,26.5,11111222 
LUMCON,ioos:station:LUMCON:wisl1:1,2019-08-02T00:45:00Z,29.1144,-90.1840,26.2,11111222 
LUMCON,ioos:station:LUMCON:wisl1:1,2019-08-02T01:00:00Z,29.1144,-90.1840,26.75,11111222 
LUMCON,ioos:station:LUMCON:wisl1:1,2019-08-02T01:15:00Z,29.1144,-90.1840,26.26,11111222 
LUMCON,ioos:station:LUMCON:wisl1:1,2019-08-02T01:30:00Z,29.1144,-90.1840,26.72,11111222 
LUMCON,ioos:station:LUMCON:wisl1:1,2019-08-02T01:45:00Z,29.1144,-90.1840,26.12,11111222 
LUMCON,ioos:station:LUMCON:wisl1:1,2019-08-02T02:00:00Z,29.1144,-90.1840,25.69,11111222 
LUMCON,ioos:station:LUMCON:wisl1:1,2019-08-02T02:15:00Z,29.1144,-90.1840,25.67,11111222 
LUMCON,ioos:station:LUMCON:wisl1:1,2019-08-02T02:30:00Z,29.1144,-90.1840,25.74,11111222 
LUMCON,ioos:station:LUMCON:wisl1:1,2019-08-02T02:45:00Z,29.1144,-90.1840,25.63,11111222 
LUMCON,ioos:station:LUMCON:wisl1:1,2019-08-02T03:00:00Z,29.1144,-90.1840,24.91,11111222 
LUMCON,ioos:station:LUMCON:wisl1:1,2019-08-02T03:15:00Z,29.1144,-90.1840,25.23,11111222 
LUMCON,ioos:station:LUMCON:wisl1:1,2019-08-02T03:30:00Z,29.1144,-90.1840,24.6,11111222 
LUMCON,ioos:station:LUMCON:wisl1:1,2019-08-02T03:45:00Z,29.1144,-90.1840,24.63,11111222 
LUMCON,ioos:station:LUMCON:wisl1:1,2019-08-02T04:00:00Z,29.1144,-90.1840,24.63,11111222 
LUMCON,ioos:station:LUMCON:wisl1:1,2019-08-02T04:15:00Z,29.1144,-90.1840,24.86,11111222 
LUMCON,ioos:station:LUMCON:wisl1:1,2019-08-02T04:30:00Z,29.1144,-90.1840,24.32,11111222 
LUMCON,ioos:station:LUMCON:wisl1:1,2019-08-02T04:45:00Z,29.1144,-90.1840,23.86,11111222 
LUMCON,ioos:station:LUMCON:wisl1:1,2019-08-02T05:00:00Z,29.1144,-90.1840,23.97,11111222 
LUMCON,ioos:station:LUMCON:wisl1:1,2019-08-02T05:15:00Z,29.1144,-90.1840,25.04,11111222 
LUMCON,ioos:station:LUMCON:wisl1:1,2019-08-02T05:30:00Z,29.1144,-90.1840,24.77,11111222 
LUMCON,ioos:station:LUMCON:wisl1:1,2019-08-02T05:45:00Z,29.1144,-90.1840,24.29,11111222 
LUMCON,ioos:station:LUMCON:wisl1:1,2019-08-02T06:00:00Z,29.1144,-90.1840,24.49,11111222 
LUMCON,ioos:station:LUMCON:wisl1:1,2019-08-02T06:15:00Z,29.1144,-90.1840,24.7,11111222 
LUMCON,ioos:station:LUMCON:wisl1:1,2019-08-02T06:30:00Z,29.1144,-90.1840,23.71,11111222 
LUMCON,ioos:station:LUMCON:wisl1:1,2019-08-02T06:45:00Z,29.1144,-90.1840,24.69,11111222 
LUMCON,ioos:station:LUMCON:wisl1:1,2019-08-02T07:00:00Z,29.1144,-90.1840,23.75,11111222 
LUMCON,ioos:station:LUMCON:wisl1:1,2019-08-02T07:15:00Z,29.1144,-90.1840,25.44,11111222 
LUMCON,ioos:station:LUMCON:wisl1:1,2019-08-02T07:30:00Z,29.1144,-90.1840,25.01,11111222 
LUMCON,ioos:station:LUMCON:wisl1:1,2019-08-02T07:45:00Z,29.1144,-90.1840,26.36,11111222 
LUMCON,ioos:station:LUMCON:wisl1:1,2019-08-02T08:00:00Z,29.1144,-90.1840,24.76,11111222 
LUMCON,ioos:station:LUMCON:wisl1:1,2019-08-02T08:15:00Z,29.1144,-90.1840,23.93,11111222 
LUMCON,ioos:station:LUMCON:wisl1:1,2019-08-02T08:30:00Z,29.1144,-90.1840,24.75,11111222 
LUMCON,ioos:station:LUMCON:wisl1:1,2019-08-02T08:45:00Z,29.1144,-90.1840,25.03,11111222 
LUMCON,ioos:station:LUMCON:wisl1:1,2019-08-02T09:00:00Z,29.1144,-90.1840,24.4,11111222 
LUMCON,ioos:station:LUMCON:wisl1:1,2019-08-02T11:30:00Z,29.1144,-90.1840,10.18,11111222 
LUMCON,ioos:station:LUMCON:wisl1:1,2019-08-02T11:45:00Z,29.1144,-90.1840,12.05,11111222 
LUMCON,ioos:station:LUMCON:wisl1:1,2019-08-02T12:00:00Z,29.1144,-90.1840,9.15,11111222 
LUMCON,ioos:station:LUMCON:wisl1:1,2019-08-02T12:15:00Z,29.1144,-90.1840,9.58,11111222 
LUMCON,ioos:station:LUMCON:wisl1:1,2019-08-02T12:30:00Z,29.1144,-90.1840,7.88,11111222 
LUMCON,ioos:station:LUMCON:wisl1:1,2019-08-02T12:45:00Z,29.1144,-90.1840,7.31,11111222 
LUMCON,ioos:station:LUMCON:wisl1:1,2019-08-02T13:00:00Z,29.1144,-90.1840,7.19,11111222 
LUMCON,ioos:station:LUMCON:wisl1:1,2019-08-02T13:15:00Z,29.1144,-90.1840,1.02,11113222 
LUMCON,ioos:station:LUMCON:wisl1:1,2019-08-02T13:30:00Z,29.1144,-90.1840,5.95,11111222 
LUMCON,ioos:station:LUMCON:wisl1:1,2019-08-02T13:45:00Z,29.1144,-90.1840,5.72,11111222 
LUMCON,ioos:station:LUMCON:wisl1:1,2019-08-02T14:00:00Z,29.1144,-90.1840,5.84,11111222 
LUMCON,ioos:station:LUMCON:wisl1:1,2019-08-02T14:15:00Z,29.1144,-90.1840,5.49,11111222 
LUMCON,ioos:station:LUMCON:wisl1:1,2019-08-02T14:30:00Z,29.1144,-90.1840,5.2,11111222 
LUMCON,ioos:station:LUMCON:wisl1:1,2019-08-02T14:45:00Z,29.1144,-90.1840,5.16,11111222 
LUMCON,ioos:station:LUMCON:wisl1:1,2019-08-02T15:00:00Z,29.1144,-90.1840,5.67,11111222 
LUMCON,ioos:station:LUMCON:wisl1:1,2019-08-02T15:15:00Z,29.1144,-90.1840,5.78,11111222 
LUMCON,ioos:station:LUMCON:wisl1:1,2019-08-02T15:30:00Z,29.1144,-90.1840,6.45,11111222 
LUMCON,ioos:station:LUMCON:wisl1:1,2019-08-02T15:45:00Z,29.1144,-90.1840,4.41,11111222 
LUMCON,ioos:station:LUMCON:wisl1:1,2019-08-02T16:00:00Z,29.1144,-90.1840,6.62,11111222 
LUMCON,ioos:station:LUMCON:wisl1:1,2019-08-02T16:15:00Z,29.1144,-90.1840,4.42,11111222 
LUMCON,ioos:station:LUMCON:wisl1:1,2019-08-02T16:30:00Z,29.1144,-90.1840,4.28,11111222 
LUMCON,ioos:station:LUMCON:wisl1:1,2019-08-02T16:45:00Z,29.1144,-90.1840,6.29,11111222 
LUMCON,ioos:station:LUMCON:wisl1:1,2019-08-02T17:00:00Z,29.1144,-90.1840,6.77,11111222 
LUMCON,ioos:station:LUMCON:wisl1:1,2019-08-02T17:15:00Z,29.1144,-90.1840,7.57,11111222 
LUMCON,ioos:station:LUMCON:wisl1:1,2019-08-02T17:30:00Z,29.1144,-90.1840,7.32,11111222 
LUMCON,ioos:station:LUMCON:wisl1:1,2019-08-02T17:45:00Z,29.1144,-90.1840,8.09,11111222 
LUMCON,ioos:station:LUMCON:wisl1:1,2019-08-02T18:00:00Z,29.1144,-90.1840,8.98,11111222 
LUMCON,ioos:station:LUMCON:wisl1:1,2019-08-02T18:15:00Z,29.1144,-90.1840,10.38,11111222 
LUMCON,ioos:station:LUMCON:wisl1:1,2019-08-02T18:30:00Z,29.1144,-90.1840,8.1,11111222 
LUMCON,ioos:station:LUMCON:wisl1:1,2019-08-02T18:45:00Z,29.1144,-90.1840,9.66,11111222 
LUMCON,ioos:station:LUMCON:wisl1:1,2019-08-02T19:00:00Z,29.1144,-90.1840,7.97,11111222 
LUMCON,ioos:station:LUMCON:wisl1:1,2019-08-02T19:15:00Z,29.1144,-90.1840,7.26,11111222 
LUMCON,ioos:station:LUMCON:wisl1:1,2019-08-02T19:30:00Z,29.1144,-90.1840,11.77,11111222 
LUMCON,ioos:station:LUMCON:wisl1:1,2019-08-02T19:45:00Z,29.1144,-90.1840,5.72,11111222 
LUMCON,ioos:station:LUMCON:wisl1:1,2019-08-02T20:00:00Z,29.1144,-90.1840,6.96,11111222 
LUMCON,ioos:station:LUMCON:wisl1:1,2019-08-02T20:15:00Z,29.1144,-90.1840,9.69,11111222 
LUMCON,ioos:station:LUMCON:wisl1:1,2019-08-02T20:30:00Z,29.1144,-90.1840,7.98,11111222 
LUMCON,ioos:station:LUMCON:wisl1:1,2019-08-02T20:45:00Z,29.1144,-90.1840,8.5,11111222 
LUMCON,ioos:station:LUMCON:wisl1:1,2019-08-02T21:00:00Z,29.1144,-90.1840,10.01,11111222 
LUMCON,ioos:station:LUMCON:wisl1:1,2019-08-02T21:15:00Z,29.1144,-90.1840,10.08,11111222 
LUMCON,ioos:station:LUMCON:wisl1:1,2019-08-02T21:30:00Z,29.1144,-90.1840,9.97,11111222 
LUMCON,ioos:station:LUMCON:wisl1:1,2019-08-02T21:45:00Z,29.1144,-90.1840,10.42,11111222 
LUMCON,ioos:station:LUMCON:wisl1:1,2019-08-02T22:00:00Z,29.1144,-90.1840,11.83,11111222 
LUMCON,ioos:station:LUMCON:wisl1:1,2019-08-02T22:15:00Z,29.1144,-90.1840,12.14,11111222 
LUMCON,ioos:station:LUMCON:wisl1:1,2019-08-02T22:30:00Z,29.1144,-90.1840,13.37,11111222 
LUMCON,ioos:station:LUMCON:wisl1:1,2019-08-02T22:45:00Z,29.1144,-90.1840,13.56,11111222 
LUMCON,ioos:station:LUMCON:wisl1:1,2019-08-02T23:00:00Z,29.1144,-90.1840,14.48,11111222 
LUMCON,ioos:station:LUMCON:wisl1:1,2019-08-02T23:15:00Z,29.1144,-90.1840,15.07,11111222 
LUMCON,ioos:station:LUMCON:wisl1:1,2019-08-02T23:30:00Z,29.1144,-90.1840,15.32,11111222 
LUMCON,ioos:station:LUMCON:wisl1:1,2019-08-02T23:45:00Z,29.1144,-90.1840,15.72,11111222 
LUMCON,ioos:station:LUMCON:wisl1:1,2019-08-03T00:00:00Z,29.1144,-90.1840,15.87,11111222 
LUMCON,ioos:station:LUMCON:wisl1:1,2019-08-03T00:15:00Z,29.1144,-90.1840,16.45,11111222 
LUMCON,ioos:station:LUMCON:wisl1:1,2019-08-03T00:30:00Z,29.1144,-90.1840,16.57,11111222 
LUMCON,ioos:station:LUMCON:wisl1:1,2019-08-03T00:45:00Z,29.1144,-90.1840,16.9,11111222 
LUMCON,ioos:station:LUMCON:wisl1:1,2019-08-03T01:00:00Z,29.1144,-90.1840,17.66,11111222 
LUMCON,ioos:station:LUMCON:wisl1:1,2019-08-03T01:15:00Z,29.1144,-90.1840,18.61,11111222 
LUMCON,ioos:station:LUMCON:wisl1:1,2019-08-03T01:30:00Z,29.1144,-90.1840,17.75,11111222 
LUMCON,ioos:station:LUMCON:wisl1:1,2019-08-03T01:45:00Z,29.1144,-90.1840,17.14,11111222 
LUMCON,ioos:station:LUMCON:wisl1:1,2019-08-03T02:00:00Z,29.1144,-90.1840,16.21,11111222 
LUMCON,ioos:station:LUMCON:wisl1:1,2019-08-03T02:15:00Z,29.1144,-90.1840,17.57,11111222 
LUMCON,ioos:station:LUMCON:wisl1:1,2019-08-03T02:30:00Z,29.1144,-90.1840,18.77,11111222 
LUMCON,ioos:station:LUMCON:wisl1:1,2019-08-03T02:45:00Z,29.1144,-90.1840,17.44,11111222 
LUMCON,ioos:station:LUMCON:wisl1:1,2019-08-03T03:00:00Z,29.1144,-90.1840,16.43,11111222 
LUMCON,ioos:station:LUMCON:wisl1:1,2019-08-03T03:15:00Z,29.1144,-90.1840,17.0,11111222 
LUMCON,ioos:station:LUMCON:wisl1:1,2019-08-03T03:30:00Z,29.1144,-90.1840,16.24,11111222 
LUMCON,ioos:station:LUMCON:wisl1:1,2019-08-03T03:45:00Z,29.1144,-90.1840,16.72,11111222 
LUMCON,ioos:station:LUMCON:wisl1:1,2019-08-03T04:00:00Z,29.1144,-90.1840,17.27,11111222 
LUMCON,ioos:station:LUMCON:wisl1:1,2019-08-03T04:15:00Z,29.1144,-90.1840,17.25,11111222 
LUMCON,ioos:station:LUMCON:wisl1:1,2019-08-03T04:30:00Z,29.1144,-90.1840,17.52,11111222 
LUMCON,ioos:station:LUMCON:wisl1:1,2019-08-03T04:45:00Z,29.1144,-90.1840,17.03,11111222 
LUMCON,ioos:station:LUMCON:wisl1:1,2019-08-03T05:00:00Z,29.1144,-90.1840,16.89,11111222 
LUMCON,ioos:station:LUMCON:wisl1:1,2019-08-03T05:15:00Z,29.1144,-90.1840,16.55,11111222 
LUMCON,ioos:station:LUMCON:wisl1:1,2019-08-03T05:30:00Z,29.1144,-90.1840,16.46,11111222 
LUMCON,ioos:station:LUMCON:wisl1:1,2019-08-03T05:45:00Z,29.1144,-90.1840,16.5,11111222 
LUMCON,ioos:station:LUMCON:wisl1:1,2019-08-03T06:00:00Z,29.1144,-90.1840,17.1,11111222 
LUMCON,ioos:station:LUMCON:wisl1:1,2019-08-03T06:15:00Z,29.1144,-90.1840,17.67,11111222 
LUMCON,ioos:station:LUMCON:wisl1:1,2019-08-03T06:30:00Z,29.1144,-90.1840,19.06,11111222 
LUMCON,ioos:station:LUMCON:wisl1:1,2019-08-03T06:45:00Z,29.1144,-90.1840,19.59,11111222 
LUMCON,ioos:station:LUMCON:wisl1:1,2019-08-03T07:00:00Z,29.1144,-90.1840,18.09,11111222 
LUMCON,ioos:station:LUMCON:wisl1:1,2019-08-03T07:15:00Z,29.1144,-90.1840,18.09,11111222 
LUMCON,ioos:station:LUMCON:wisl1:1,2019-08-03T07:30:00Z,29.1144,-90.1840,17.27,11111222 
LUMCON,ioos:station:LUMCON:wisl1:1,2019-08-03T07:45:00Z,29.1144,-90.1840,18.04,11111222 
LUMCON,ioos:station:LUMCON:wisl1:1,2019-08-03T08:00:00Z,29.1144,-90.1840,16.91,11111222 
LUMCON,ioos:station:LUMCON:wisl1:1,2019-08-03T08:15:00Z,29.1144,-90.1840,18.94,11111222 
LUMCON,ioos:station:LUMCON:wisl1:1,2019-08-03T08:30:00Z,29.1144,-90.1840,18.28,11111222 
LUMCON,ioos:station:LUMCON:wisl1:1,2019-08-03T08:45:00Z,29.1144,-90.1840,17.79,11111222 
LUMCON,ioos:station:LUMCON:wisl1:1,2019-08-03T09:00:00Z,29.1144,-90.1840,20.46,11111222 
LUMCON,ioos:station:LUMCON:wisl1:1,2019-08-03T09:15:00Z,29.1144,-90.1840,18.18,11111222 
LUMCON,ioos:station:LUMCON:wisl1:1,2019-08-03T09:30:00Z,29.1144,-90.1840,16.81,11111222 
LUMCON,ioos:station:LUMCON:wisl1:1,2019-08-03T09:45:00Z,29.1144,-90.1840,16.97,11111222 
LUMCON,ioos:station:LUMCON:wisl1:1,2019-08-03T10:00:00Z,29.1144,-90.1840,15.85,11111222 
LUMCON,ioos:station:LUMCON:wisl1:1,2019-08-03T10:15:00Z,29.1144,-90.1840,12.5,11111222 
LUMCON,ioos:station:LUMCON:wisl1:1,2019-08-03T10:30:00Z,29.1144,-90.1840,11.09,11111222 
LUMCON,ioos:station:LUMCON:wisl1:1,2019-08-03T10:45:00Z,29.1144,-90.1840,9.22,11111222 
LUMCON,ioos:station:LUMCON:wisl1:1,2019-08-03T11:00:00Z,29.1144,-90.1840,7.64,11111222 
LUMCON,ioos:station:LUMCON:wisl1:1,2019-08-03T11:15:00Z,29.1144,-90.1840,6.91,11111222 
LUMCON,ioos:station:LUMCON:wisl1:1,2019-08-03T11:30:00Z,29.1144,-90.1840,5.75,11111222 
LUMCON,ioos:station:LUMCON:wisl1:1,2019-08-03T11:45:00Z,29.1144,-90.1840,4.99,11111222 
LUMCON,ioos:station:LUMCON:wisl1:1,2019-08-03T12:00:00Z,29.1144,-90.1840,4.74,11111222 
LUMCON,ioos:station:LUMCON:wisl1:1,2019-08-03T12:15:00Z,29.1144,-90.1840,4.5,11111222 
LUMCON,ioos:station:LUMCON:wisl1:1,2019-08-03T12:30:00Z,29.1144,-90.1840,4.47,11111222 
LUMCON,ioos:station:LUMCON:wisl1:1,2019-08-03T12:45:00Z,29.1144,-90.1840,4.03,11111222 
LUMCON,ioos:station:LUMCON:wisl1:1,2019-08-03T13:00:00Z,29.1144,-90.1840,3.62,11111222 
LUMCON,ioos:station:LUMCON:wisl1:1,2019-08-03T13:15:00Z,29.1144,-90.1840,3.48,11111222 
LUMCON,ioos:station:LUMCON:wisl1:1,2019-08-03T13:30:00Z,29.1144,-90.1840,3.61,11111222 
LUMCON,ioos:station:LUMCON:wisl1:1,2019-08-03T13:45:00Z,29.1144,-90.1840,3.45,11111222 
LUMCON,ioos:station:LUMCON:wisl1:1,2019-08-03T14:00:00Z,29.1144,-90.1840,3.76,11111222 
LUMCON,ioos:station:LUMCON:wisl1:1,2019-08-03T14:15:00Z,29.1144,-90.1840,3.7,11111222 
LUMCON,ioos:station:LUMCON:wisl1:1,2019-08-03T14:30:00Z,29.1144,-90.1840,3.85,11111222 
LUMCON,ioos:station:LUMCON:wisl1:1,2019-08-03T14:45:00Z,29.1144,-90.1840,3.85,11111222 
LUMCON,ioos:station:LUMCON:wisl1:1,2019-08-03T15:00:00Z,29.1144,-90.1840,5.13,11111222 
LUMCON,ioos:station:LUMCON:wisl1:1,2019-08-03T15:15:00Z,29.1144,-90.1840,3.22,11111222 
LUMCON,ioos:station:LUMCON:wisl1:1,2019-08-03T15:30:00Z,29.1144,-90.1840,4.02,11111222 
LUMCON,ioos:station:LUMCON:wisl1:1,2019-08-03T15:45:00Z,29.1144,-90.1840,3.69,11111222 
LUMCON,ioos:station:LUMCON:wisl1:1,2019-08-03T16:00:00Z,29.1144,-90.1840,4.18,11111222 
LUMCON,ioos:station:LUMCON:wisl1:1,2019-08-03T16:15:00Z,29.1144,-90.1840,4.95,11111222 
LUMCON,ioos:station:LUMCON:wisl1:1,2019-08-03T16:30:00Z,29.1144,-90.1840,4.84,11111222 
LUMCON,ioos:station:LUMCON:wisl1:1,2019-08-03T16:45:00Z,29.1144,-90.1840,5.8,11111222 
LUMCON,ioos:station:LUMCON:wisl1:1,2019-08-03T17:00:00Z,29.1144,-90.1840,5.33,11111222 
LUMCON,ioos:station:LUMCON:wisl1:1,2019-08-03T17:15:00Z,29.1144,-90.1840,6.59,11111222 
LUMCON,ioos:station:LUMCON:wisl1:1,2019-08-03T17:30:00Z,29.1144,-90.1840,5.88,11111222 
LUMCON,ioos:station:LUMCON:wisl1:1,2019-08-03T17:45:00Z,29.1144,-90.1840,7.07,11111222 
LUMCON,ioos:station:LUMCON:wisl1:1,2019-08-03T18:00:00Z,29.1144,-90.1840,6.96,11111222 
LUMCON,ioos:station:LUMCON:wisl1:1,2019-08-03T18:15:00Z,29.1144,-90.1840,7.29,11111222 
LUMCON,ioos:station:LUMCON:wisl1:1,2019-08-03T18:30:00Z,29.1144,-90.1840,7.66,11111222 
LUMCON,ioos:station:LUMCON:wisl1:1,2019-08-03T18:45:00Z,29.1144,-90.1840,7.01,11111222 
LUMCON,ioos:station:LUMCON:wisl1:1,2019-08-03T19:00:00Z,29.1144,-90.1840,8.7,11111222 
LUMCON,ioos:station:LUMCON:wisl1:1,2019-08-03T19:15:00Z,29.1144,-90.1840,10.12,11111222 
LUMCON,ioos:station:LUMCON:wisl1:1,2019-08-03T19:30:00Z,29.1144,-90.1840,9.97,11111222 
LUMCON,ioos:station:LUMCON:wisl1:1,2019-08-03T19:45:00Z,29.1144,-90.1840,9.88,11111222 
LUMCON,ioos:station:LUMCON:wisl1:1,2019-08-03T20:00:00Z,29.1144,-90.1840,12.14,11111222 
LUMCON,ioos:station:LUMCON:wisl1:1,2019-08-03T20:15:00Z,29.1144,-90.1840,15.4,11111222 
LUMCON,ioos:station:LUMCON:wisl1:1,2019-08-03T20:30:00Z,29.1144,-90.1840,12.77,11111222 
LUMCON,ioos:station:LUMCON:wisl1:1,2019-08-03T20:45:00Z,29.1144,-90.1840,5.09,11111222 
LUMCON,ioos:station:LUMCON:wisl1:1,2019-08-03T21:00:00Z,29.1144,-90.1840,5.61,11111222 
LUMCON,ioos:station:LUMCON:wisl1:1,2019-08-03T21:15:00Z,29.1144,-90.1840,6.7,11111222 